Time,TemperatureF,DewpointF,PressureIn,WindDirection,WindDirectionDegrees,WindSpeedMPH,WindSpeedGustMPH,Humidity,HourlyPrecipIn,Conditions,Clouds,dailyrainin,SolarRadiationWatts/m^2,SoftwareType,DateUTC
2013-09-07 00:03:00,61.6,59.6,30.10,WNW,294,0.0,0.0,93,0.00,,,0.00,0,Wunderground v.1.15,2013-09-07 07:03:00,
2013-09-07 00:10:00,61.6,59.9,30.10,WNW,294,0.0,0.0,94,0.00,,,0.00,0,Wunderground v.1.15,2013-09-07 07:10:00,
2013-09-07 00:16:00,61.5,59.8,30.10,WNW,294,0.0,0.0,94,0.00,,,0.00,0,Wunderground v.1.15,2013-09-07 07:16:00,
2013-09-07 00:22:00,61.4,59.7,30.10,WNW,294,0.0,0.0,94,0.00,,,0.00,0,Wunderground v.1.15,2013-09-07 07:22:00,
2013-09-07 00:28:00,61.3,59.6,30.10,WNW,294,1.0,1.0,94,0.00,,,0.00,0,Wunderground v.1.15,2013-09-07 07:28:00,
2013-09-07 00:33:00,61.2,59.5,30.10,WNW,294,0.0,0.0,94,0.00,,,0.00,0,Wunderground v.1.15,2013-09-07 07:33:00,
2013-09-07 00:39:00,61.3,59.6,30.10,WNW,294,0.0,0.0,94,0.00,,,0.00,0,Wunderground v.1.15,2013-09-07 07:39:00,
2013-09-07 00:45:00,61.3,59.6,30.10,WNW,294,0.0,1.0,94,0.00,,,0.00,0,Wunderground v.1.15,2013-09-07 07:45:00,
2013-09-07 00:51:00,61.4,59.7,30.10,WNW,294,0.0,0.0,94,0.00,,,0.00,0,Wunderground v.1.15,2013-09-07 07:51:00,
2013-09-07 00:56:00,61.4,59.7,30.10,WNW,294,0.0,0.0,94,0.00,,,0.00,0,Wunderground v.1.15,2013-09-07 07:56:00,
2013-09-07 01:02:00,61.4,59.7,30.10,WNW,294,0.0,0.0,94,0.00,,,0.00,0,Wunderground v.1.15,2013-09-07 08:02:00,
2013-09-07 01:08:00,61.3,59.6,30.10,WNW,294,0.0,0.0,94,0.00,,,0.00,0,Wunderground v.1.15,2013-09-07 08:08:00,
2013-09-07 01:13:00,61.2,59.5,30.10,WNW,294,0.0,0.0,94,0.00,,,0.00,0,Wunderground v.1.15,2013-09-07 08:13:00,
2013-09-07 01:19:00,61.1,59.4,30.10,WNW,294,0.0,0.0,94,0.00,,,0.00,0,Wunderground v.1.15,2013-09-07 08:19:00,
2013-09-07 01:25:00,61.2,59.5,30.10,WNW,294,0.0,0.0,94,0.00,,,0.00,0,Wunderground v.1.15,2013-09-07 08:25:00,
2013-09-07 01:30:00,61.3,59.6,30.10,WNW,294,0.0,0.0,94,0.00,,,0.00,0,Wunderground v.1.15,2013-09-07 08:30:00,
2013-09-07 01:36:00,61.4,60.0,30.10,WNW,294,0.0,0.0,95,0.00,,,0.00,0,Wunderground v.1.15,2013-09-07 08:36:00,
2013-09-07 01:42:00,61.5,60.1,30.10,WNW,294,0.0,0.0,95,0.00,,,0.00,0,Wunderground v.1.15,2013-09-07 08:42:00,
2013-09-07 01:48:00,61.3,59.6,30.09,WNW,294,0.0,1.0,94,0.00,,,0.00,0,Wunderground v.1.15,2013-09-07 08:48:00,
2013-09-07 01:53:00,61.2,59.5,30.09,WNW,294,0.0,0.0,94,0.00,,,0.00,0,Wunderground v.1.15,2013-09-07 08:53:00,
2013-09-07 01:59:00,61.3,59.6,30.09,WNW,294,0.0,1.0,94,0.00,,,0.00,0,Wunderground v.1.15,2013-09-07 08:59:00,
2013-09-07 02:04:00,61.3,59.6,30.09,WNW,294,1.0,2.0,94,0.00,,,0.00,0,Wunderground v.1.15,2013-09-07 09:04:00,
2013-09-07 02:09:00,61.1,59.4,30.09,WNW,294,1.0,2.0,94,0.00,,,0.00,0,Wunderground v.1.15,2013-09-07 09:09:00,
2013-09-07 02:14:00,60.8,59.1,30.09,WNW,294,1.0,3.0,94,0.00,,,0.00,0,Wunderground v.1.15,2013-09-07 09:14:00,
2013-09-07 02:19:00,60.7,59.0,30.09,WNW,294,0.0,3.0,94,0.00,,,0.00,0,Wunderground v.1.15,2013-09-07 09:19:00,
2013-09-07 02:24:00,60.7,59.0,30.08,WNW,294,0.0,1.0,94,0.00,,,0.00,0,Wunderground v.1.15,2013-09-07 09:24:00,
2013-09-07 02:29:00,60.6,58.9,30.08,WNW,294,0.0,1.0,94,0.00,,,0.00,0,Wunderground v.1.15,2013-09-07 09:29:00,
2013-09-07 02:34:00,60.6,58.9,30.08,WNW,294,0.0,0.0,94,0.00,,,0.00,0,Wunderground v.1.15,2013-09-07 09:34:00,
2013-09-07 02:39:00,60.6,58.9,30.08,WNW,294,0.0,0.0,94,0.00,,,0.00,0,Wunderground v.1.15,2013-09-07 09:39:00,
2013-09-07 02:44:00,60.7,59.0,30.08,WNW,294,0.0,1.0,94,0.00,,,0.00,0,Wunderground v.1.15,2013-09-07 09:44:00,
2013-09-07 02:49:00,60.8,59.1,30.08,WNW,294,0.0,1.0,94,0.00,,,0.00,0,Wunderground v.1.15,2013-09-07 09:49:00,
2013-09-07 02:54:00,60.8,59.4,30.08,WNW,294,0.0,2.0,95,0.00,,,0.00,0,Wunderground v.1.15,2013-09-07 09:54:00,
2013-09-07 02:59:00,60.9,59.5,30.08,WNW,294,0.0,2.0,95,0.00,,,0.00,0,Wunderground v.1.15,2013-09-07 09:59:00,
2013-09-07 03:04:00,61.0,59.6,30.08,WNW,294,0.0,1.0,95,0.00,,,0.00,0,Wunderground v.1.15,2013-09-07 10:04:00,
2013-09-07 03:09:00,61.0,59.6,30.08,WNW,294,0.0,1.0,95,0.00,,,0.00,0,Wunderground v.1.15,2013-09-07 10:09:00,
2013-09-07 03:14:00,60.9,59.5,30.08,WNW,294,0.0,2.0,95,0.00,,,0.00,0,Wunderground v.1.15,2013-09-07 10:14:00,
2013-09-07 03:19:00,60.9,59.5,30.08,WNW,294,0.0,2.0,95,0.00,,,0.00,0,Wunderground v.1.15,2013-09-07 10:19:00,
2013-09-07 03:24:00,60.9,59.5,30.07,WNW,294,0.0,1.0,95,0.00,,,0.00,0,Wunderground v.1.15,2013-09-07 10:24:00,
2013-09-07 03:29:00,60.9,59.5,30.07,WNW,294,0.0,2.0,95,0.00,,,0.00,0,Wunderground v.1.15,2013-09-07 10:29:00,
2013-09-07 03:34:00,60.8,59.4,30.07,WNW,294,1.0,3.0,95,0.00,,,0.00,0,Wunderground v.1.15,2013-09-07 10:34:00,
2013-09-07 03:39:00,60.8,59.4,30.07,WNW,294,0.0,3.0,95,0.00,,,0.00,0,Wunderground v.1.15,2013-09-07 10:39:00,
2013-09-07 03:44:00,60.8,59.4,30.07,WNW,294,0.0,1.0,95,0.00,,,0.00,0,Wunderground v.1.15,2013-09-07 10:44:00,
2013-09-07 03:49:00,60.7,59.0,30.07,WNW,294,0.0,1.0,94,0.00,,,0.00,0,Wunderground v.1.15,2013-09-07 10:49:00,
2013-09-07 03:54:00,60.7,59.0,30.07,WNW,294,0.0,1.0,94,0.00,,,0.00,0,Wunderground v.1.15,2013-09-07 10:54:00,
2013-09-07 03:59:00,60.7,59.0,30.07,WNW,294,0.0,2.0,94,0.00,,,0.00,0,Wunderground v.1.15,2013-09-07 10:59:00,
2013-09-07 04:04:00,60.7,59.0,30.07,WNW,294,1.0,2.0,94,0.00,,,0.00,0,Wunderground v.1.15,2013-09-07 11:04:00,
2013-09-07 04:09:00,60.7,59.0,30.07,NW,305,2.0,3.0,94,0.00,,,0.00,0,Wunderground v.1.15,2013-09-07 11:09:00,
2013-09-07 04:14:00,60.8,59.4,30.07,NW,305,0.0,2.0,95,0.00,,,0.00,0,Wunderground v.1.15,2013-09-07 11:14:00,
2013-09-07 04:19:00,60.8,59.4,30.07,NW,305,0.0,2.0,95,0.00,,,0.00,0,Wunderground v.1.15,2013-09-07 11:19:00,
2013-09-07 04:24:00,60.9,59.5,30.07,NW,305,1.0,2.0,95,0.00,,,0.00,0,Wunderground v.1.15,2013-09-07 11:24:00,
2013-09-07 04:29:00,60.9,59.5,30.06,NW,305,0.0,2.0,95,0.00,,,0.00,0,Wunderground v.1.15,2013-09-07 11:29:00,
2013-09-07 04:34:00,60.9,59.5,30.06,NW,305,0.0,1.0,95,0.00,,,0.00,0,Wunderground v.1.15,2013-09-07 11:34:00,
2013-09-07 04:39:00,60.9,59.5,30.06,NW,305,0.0,3.0,95,0.00,,,0.00,0,Wunderground v.1.15,2013-09-07 11:39:00,
2013-09-07 04:44:00,60.8,59.4,30.06,NW,305,0.0,1.0,95,0.00,,,0.00,0,Wunderground v.1.15,2013-09-07 11:44:00,
2013-09-07 04:49:00,60.7,59.3,30.06,NW,305,0.0,1.0,95,0.00,,,0.00,0,Wunderground v.1.15,2013-09-07 11:49:00,
2013-09-07 04:54:00,60.6,59.2,30.06,NW,305,0.0,1.0,95,0.00,,,0.00,0,Wunderground v.1.15,2013-09-07 11:54:00,
2013-09-07 04:59:00,60.5,59.1,30.06,NW,305,0.0,1.0,95,0.00,,,0.00,0,Wunderground v.1.15,2013-09-07 11:59:00,
2013-09-07 05:04:00,60.4,59.0,30.06,NNE,20,1.0,2.0,95,0.00,,,0.00,0,Wunderground v.1.15,2013-09-07 12:04:00,
2013-09-07 05:09:00,60.4,59.0,30.06,NNE,20,0.0,2.0,95,0.00,,,0.00,0,Wunderground v.1.15,2013-09-07 12:09:00,
2013-09-07 05:14:00,60.4,59.0,30.06,NNE,20,0.0,0.0,95,0.00,,,0.00,0,Wunderground v.1.15,2013-09-07 12:14:00,
2013-09-07 05:19:00,60.4,59.0,30.06,NNE,20,1.0,1.0,95,0.00,,,0.00,0,Wunderground v.1.15,2013-09-07 12:19:00,
2013-09-07 05:24:00,60.4,59.0,30.06,NW,311,1.0,3.0,95,0.00,,,0.00,0,Wunderground v.1.15,2013-09-07 12:24:00,
2013-09-07 05:29:00,60.2,58.8,30.06,WNW,300,2.0,5.0,95,0.00,,,0.00,0,Wunderground v.1.15,2013-09-07 12:29:00,
2013-09-07 05:34:00,59.9,58.5,30.06,NW,316,3.0,4.0,95,0.00,,,0.00,0,Wunderground v.1.15,2013-09-07 12:34:00,
2013-09-07 05:39:00,59.7,58.3,30.06,NW,316,0.0,4.0,95,0.00,,,0.00,0,Wunderground v.1.15,2013-09-07 12:39:00,
2013-09-07 05:44:00,59.7,58.3,30.06,NW,316,0.0,2.0,95,0.00,,,0.00,0,Wunderground v.1.15,2013-09-07 12:44:00,
2013-09-07 05:49:00,59.7,58.3,30.06,NW,316,0.0,2.0,95,0.00,,,0.00,0,Wunderground v.1.15,2013-09-07 12:49:00,
2013-09-07 05:54:00,59.7,58.3,30.06,NW,316,0.0,1.0,95,0.00,,,0.00,0,Wunderground v.1.15,2013-09-07 12:54:00,
2013-09-07 05:59:00,59.8,58.4,30.06,NW,316,0.0,2.0,95,0.00,,,0.00,0,Wunderground v.1.15,2013-09-07 12:59:00,
2013-09-07 06:04:00,59.7,58.3,30.06,NW,316,1.0,2.0,95,0.00,,,0.00,0,Wunderground v.1.15,2013-09-07 13:04:00,
2013-09-07 06:09:00,59.7,58.3,30.06,NW,316,1.0,2.0,95,0.00,,,0.00,0,Wunderground v.1.15,2013-09-07 13:09:00,
2013-09-07 06:14:00,59.8,58.4,30.05,NW,316,1.0,3.0,95,0.00,,,0.00,0,Wunderground v.1.15,2013-09-07 13:14:00,
2013-09-07 06:19:00,59.7,58.3,30.06,NW,316,0.0,3.0,95,0.00,,,0.00,0,Wunderground v.1.15,2013-09-07 13:19:00,
2013-09-07 06:24:00,59.6,58.2,30.06,NW,316,0.0,2.0,95,0.00,,,0.00,0,Wunderground v.1.15,2013-09-07 13:24:00,
2013-09-07 06:29:00,59.5,58.1,30.06,NW,316,0.0,3.0,95,0.00,,,0.00,0,Wunderground v.1.15,2013-09-07 13:29:00,
2013-09-07 06:34:00,59.5,58.1,30.06,NW,316,0.0,1.0,95,0.00,,,0.00,0,Wunderground v.1.15,2013-09-07 13:34:00,
2013-09-07 06:39:00,59.4,58.0,30.06,NW,316,1.0,2.0,95,0.00,,,0.00,0,Wunderground v.1.15,2013-09-07 13:39:00,
2013-09-07 06:44:00,59.4,58.0,30.06,NW,316,1.0,2.0,95,0.00,,,0.00,0,Wunderground v.1.15,2013-09-07 13:44:00,
2013-09-07 06:49:00,59.4,58.0,30.06,NW,316,1.0,2.0,95,0.00,,,0.00,0,Wunderground v.1.15,2013-09-07 13:49:00,
2013-09-07 06:54:00,59.5,58.1,30.06,NW,316,0.0,2.0,95,0.00,,,0.00,0,Wunderground v.1.15,2013-09-07 13:54:00,
2013-09-07 06:59:00,59.5,58.1,30.06,NW,316,0.0,2.0,95,0.00,,,0.00,18,Wunderground v.1.15,2013-09-07 13:59:00,
2013-09-07 07:04:00,59.6,58.2,30.05,NW,316,1.0,2.0,95,0.00,,,0.00,23,Wunderground v.1.15,2013-09-07 14:04:00,
2013-09-07 07:09:00,59.7,58.3,30.05,NW,316,0.0,2.0,95,0.00,,,0.00,32,Wunderground v.1.15,2013-09-07 14:09:00,
2013-09-07 07:14:00,59.8,58.4,30.05,NW,316,1.0,2.0,95,0.00,,,0.00,37,Wunderground v.1.15,2013-09-07 14:14:00,
2013-09-07 07:19:00,59.9,58.5,30.05,NW,316,0.0,2.0,95,0.00,,,0.00,35,Wunderground v.1.15,2013-09-07 14:19:00,
2013-09-07 07:24:00,59.9,58.5,30.06,NW,316,2.0,3.0,95,0.00,,,0.00,33,Wunderground v.1.15,2013-09-07 14:24:00,
2013-09-07 07:29:00,60.0,58.6,30.05,NW,316,0.0,3.0,95,0.00,,,0.00,35,Wunderground v.1.15,2013-09-07 14:29:00,
2013-09-07 07:34:00,60.0,58.6,30.05,NW,316,0.0,2.0,95,0.00,,,0.00,40,Wunderground v.1.15,2013-09-07 14:34:00,
2013-09-07 07:39:00,60.1,58.7,30.05,NW,316,1.0,2.0,95,0.00,,,0.00,42,Wunderground v.1.15,2013-09-07 14:39:00,
2013-09-07 07:44:00,60.1,58.7,30.05,NW,316,1.0,2.0,95,0.00,,,0.00,46,Wunderground v.1.15,2013-09-07 14:44:00,
2013-09-07 07:49:00,60.2,58.8,30.05,NW,316,3.0,3.0,95,0.00,,,0.00,53,Wunderground v.1.15,2013-09-07 14:49:00,
2013-09-07 07:54:00,60.3,58.9,30.06,NW,316,0.0,3.0,95,0.00,,,0.00,72,Wunderground v.1.15,2013-09-07 14:54:00,
2013-09-07 07:59:00,60.4,59.0,30.06,NW,316,0.0,3.0,95,0.00,,,0.00,63,Wunderground v.1.15,2013-09-07 14:59:00,
2013-09-07 08:04:00,60.5,59.1,30.06,WNW,298,3.0,4.0,95,0.00,,,0.00,65,Wunderground v.1.15,2013-09-07 15:04:00,
2013-09-07 08:09:00,60.5,58.8,30.06,WNW,297,0.0,5.0,94,0.00,,,0.00,81,Wunderground v.1.15,2013-09-07 15:09:00,
2013-09-07 08:14:00,60.7,59.0,30.06,NNE,32,1.0,2.0,94,0.00,,,0.00,69,Wunderground v.1.15,2013-09-07 15:14:00,
2013-09-07 08:19:00,60.8,59.1,30.06,NNW,342,0.0,3.0,94,0.00,,,0.00,88,Wunderground v.1.15,2013-09-07 15:19:00,
2013-09-07 08:24:00,61.0,59.3,30.06,WNW,300,0.0,4.0,94,0.00,,,0.00,160,Wunderground v.1.15,2013-09-07 15:24:00,
2013-09-07 08:29:00,61.2,59.5,30.06,WNW,300,1.0,4.0,94,0.00,,,0.00,142,Wunderground v.1.15,2013-09-07 15:29:00,
2013-09-07 08:34:00,61.4,59.7,30.05,NNE,25,0.0,1.0,94,0.00,,,0.00,163,Wunderground v.1.15,2013-09-07 15:34:00,
2013-09-07 08:39:00,61.6,59.9,30.05,ENE,61,1.0,2.0,94,0.00,,,0.00,118,Wunderground v.1.15,2013-09-07 15:39:00,
2013-09-07 08:44:00,61.7,60.0,30.05,SE,141,0.0,2.0,94,0.00,,,0.00,132,Wunderground v.1.15,2013-09-07 15:44:00,
2013-09-07 08:49:00,61.9,60.2,30.05,SE,141,0.0,2.0,94,0.00,,,0.00,200,Wunderground v.1.15,2013-09-07 15:49:00,
2013-09-07 08:54:00,62.2,60.2,30.05,SSE,159,2.0,2.0,93,0.00,,,0.00,213,Wunderground v.1.15,2013-09-07 15:54:00,
2013-09-07 08:59:00,62.6,60.5,30.05,SSE,159,1.0,2.0,93,0.00,,,0.00,332,Wunderground v.1.15,2013-09-07 15:59:00,
2013-09-07 09:04:00,63.0,60.6,30.05,SSE,159,3.0,3.0,92,0.00,,,0.00,348,Wunderground v.1.15,2013-09-07 16:04:00,
2013-09-07 09:09:00,63.5,60.8,30.05,SSE,159,0.0,3.0,91,0.00,,,0.00,394,Wunderground v.1.15,2013-09-07 16:09:00,
2013-09-07 09:14:00,64.0,61.0,30.05,SSE,159,0.0,1.0,90,0.00,,,0.00,432,Wunderground v.1.15,2013-09-07 16:14:00,
2013-09-07 09:19:00,64.6,61.3,30.05,SSE,158,1.0,2.0,89,0.00,,,0.00,197,Wunderground v.1.15,2013-09-07 16:19:00,
2013-09-07 09:24:00,65.2,61.6,30.06,SSE,158,0.0,1.0,88,0.00,,,0.00,520,Wunderground v.1.15,2013-09-07 16:24:00,
2013-09-07 09:29:00,65.8,61.5,30.06,NW,315,1.0,3.0,86,0.00,,,0.00,188,Wunderground v.1.15,2013-09-07 16:29:00,
2013-09-07 09:34:00,66.2,61.2,30.06,NNE,28,3.0,4.0,84,0.00,,,0.00,197,Wunderground v.1.15,2013-09-07 16:34:00,
2013-09-07 09:39:00,66.1,60.8,30.06,NE,49,2.0,4.0,83,0.00,,,0.00,116,Wunderground v.1.15,2013-09-07 16:39:00,
2013-09-07 09:44:00,65.9,60.6,30.06,NE,44,2.0,3.0,83,0.00,,,0.00,264,Wunderground v.1.15,2013-09-07 16:44:00,
2013-09-07 09:49:00,65.8,60.5,30.05,NE,49,2.0,4.0,83,0.00,,,0.00,128,Wunderground v.1.15,2013-09-07 16:49:00,
2013-09-07 09:54:00,65.9,60.6,30.05,ENE,78,1.0,2.0,83,0.00,,,0.00,526,Wunderground v.1.15,2013-09-07 16:54:00,
2013-09-07 09:59:00,66.5,60.8,30.05,East,83,2.0,3.0,82,0.00,,,0.00,589,Wunderground v.1.15,2013-09-07 16:59:00,
2013-09-07 10:04:00,66.8,60.4,30.05,ENE,69,0.0,5.0,80,0.00,,,0.00,654,Wunderground v.1.15,2013-09-07 17:04:00,
2013-09-07 10:09:00,67.2,61.2,30.05,NNW,327,2.0,6.0,81,0.00,,,0.00,701,Wunderground v.1.15,2013-09-07 17:09:00,
2013-09-07 10:14:00,67.4,61.4,30.05,NW,313,2.0,6.0,81,0.00,,,0.00,408,Wunderground v.1.15,2013-09-07 17:14:00,
2013-09-07 10:19:00,67.4,61.4,30.05,NW,323,3.0,6.0,81,0.00,,,0.00,241,Wunderground v.1.15,2013-09-07 17:19:00,
2013-09-07 10:24:00,67.4,61.4,30.05,NNW,342,4.0,5.0,81,0.00,,,0.00,353,Wunderground v.1.15,2013-09-07 17:24:00,
2013-09-07 10:29:00,67.7,61.7,30.05,NW,310,6.0,7.0,81,0.00,,,0.00,283,Wunderground v.1.15,2013-09-07 17:29:00,
2013-09-07 10:34:00,67.3,61.6,30.05,NW,306,1.0,6.0,82,0.00,,,0.00,287,Wunderground v.1.15,2013-09-07 17:34:00,
2013-09-07 10:39:00,67.4,61.4,30.05,NNW,348,4.0,9.0,81,0.00,,,0.00,545,Wunderground v.1.15,2013-09-07 17:39:00,
2013-09-07 10:44:00,67.2,61.2,30.04,NNW,336,3.0,7.0,81,0.00,,,0.00,749,Wunderground v.1.15,2013-09-07 17:44:00,
2013-09-07 10:49:00,67.4,61.4,30.04,NW,317,3.0,7.0,81,0.00,,,0.00,151,Wunderground v.1.15,2013-09-07 17:49:00,
2013-09-07 10:54:00,67.5,61.1,30.04,NNW,329,2.0,5.0,80,0.00,,,0.00,638,Wunderground v.1.15,2013-09-07 17:54:00,
2013-09-07 10:59:00,67.7,61.7,30.05,NNW,331,2.0,7.0,81,0.00,,,0.00,257,Wunderground v.1.15,2013-09-07 17:59:00,
2013-09-07 11:04:00,67.5,61.1,30.05,NW,307,7.0,9.0,80,0.00,,,0.00,225,Wunderground v.1.15,2013-09-07 18:04:00,
2013-09-07 11:09:00,67.3,61.3,30.04,WNW,295,6.0,9.0,81,0.00,,,0.00,512,Wunderground v.1.15,2013-09-07 18:09:00,
2013-09-07 11:14:00,67.4,61.4,30.04,NW,318,2.0,6.0,81,0.00,,,0.00,199,Wunderground v.1.15,2013-09-07 18:14:00,
2013-09-07 11:19:00,67.7,61.3,30.04,NW,315,2.0,8.0,80,0.00,,,0.00,643,Wunderground v.1.15,2013-09-07 18:19:00,
2013-09-07 11:24:00,68.0,61.6,30.04,NW,315,9.0,9.0,80,0.00,,,0.00,635,Wunderground v.1.15,2013-09-07 18:24:00,
2013-09-07 11:29:00,68.1,61.7,30.04,NNW,340,2.0,9.0,80,0.00,,,0.00,638,Wunderground v.1.15,2013-09-07 18:29:00,
2013-09-07 11:34:00,68.1,61.3,30.04,NNE,15,6.0,9.0,79,0.00,,,0.00,635,Wunderground v.1.15,2013-09-07 18:34:00,
2013-09-07 11:39:00,67.9,61.1,30.04,West,265,5.0,9.0,79,0.00,,,0.00,642,Wunderground v.1.15,2013-09-07 18:39:00,
2013-09-07 11:44:00,68.2,61.8,30.04,NNE,27,3.0,8.0,80,0.00,,,0.00,664,Wunderground v.1.15,2013-09-07 18:44:00,
2013-09-07 11:49:00,68.6,61.8,30.04,North,350,2.0,9.0,79,0.00,,,0.00,664,Wunderground v.1.15,2013-09-07 18:49:00,
2013-09-07 11:54:00,69.1,61.9,30.04,NNE,19,6.0,7.0,78,0.00,,,0.00,661,Wunderground v.1.15,2013-09-07 18:54:00,
2013-09-07 11:59:00,69.3,61.8,30.03,WNW,294,4.0,7.0,77,0.00,,,0.00,664,Wunderground v.1.15,2013-09-07 18:59:00,
2013-09-07 12:04:00,69.3,61.8,30.03,NNE,22,4.0,7.0,77,0.00,,,0.00,679,Wunderground v.1.15,2013-09-07 19:04:00,
2013-09-07 12:10:00,69.2,61.3,30.03,NNE,25,2.0,5.0,76,0.00,,,0.00,701,Wunderground v.1.15,2013-09-07 19:10:00,
2013-09-07 12:15:00,69.2,61.3,30.03,NW,319,3.0,10.0,76,0.00,,,0.00,696,Wunderground v.1.15,2013-09-07 19:15:00,
2013-09-07 12:20:00,69.3,61.0,30.03,NW,312,4.0,10.0,75,0.00,,,0.00,686,Wunderground v.1.15,2013-09-07 19:20:00,
2013-09-07 12:25:00,69.5,61.2,30.03,North,355,5.0,8.0,75,0.00,,,0.00,687,Wunderground v.1.15,2013-09-07 19:25:00,
2013-09-07 12:30:00,69.8,61.5,30.03,NE,40,1.0,8.0,75,0.00,,,0.00,719,Wunderground v.1.15,2013-09-07 19:30:00,
2013-09-07 12:35:00,70.4,61.7,30.02,West,273,1.0,10.0,74,0.00,,,0.00,745,Wunderground v.1.15,2013-09-07 19:35:00,
2013-09-07 12:40:00,70.6,60.7,30.02,West,280,6.0,10.0,71,0.00,,,0.00,745,Wunderground v.1.15,2013-09-07 19:40:00,
2013-09-07 12:45:00,70.5,61.0,30.02,North,11,2.0,6.0,72,0.00,,,0.00,694,Wunderground v.1.15,2013-09-07 19:45:00,
2013-09-07 12:50:00,70.8,60.9,30.02,WNW,302,2.0,7.0,71,0.00,,,0.00,696,Wunderground v.1.15,2013-09-07 19:50:00,
2013-09-07 12:55:00,71.2,60.9,30.02,NW,310,4.0,5.0,70,0.00,,,0.00,696,Wunderground v.1.15,2013-09-07 19:55:00,
2013-09-07 13:00:00,71.7,60.6,30.02,North,360,0.0,6.0,68,0.00,,,0.00,705,Wunderground v.1.15,2013-09-07 20:00:00,
2013-09-07 13:05:00,72.4,61.7,30.02,NNW,344,0.0,5.0,69,0.00,,,0.00,710,Wunderground v.1.15,2013-09-07 20:05:00,
2013-09-07 13:10:00,73.0,61.8,30.02,NW,306,5.0,8.0,68,0.00,,,0.00,729,Wunderground v.1.15,2013-09-07 20:10:00,
2013-09-07 13:15:00,73.0,61.8,30.02,NE,49,2.0,6.0,68,0.00,,,0.00,728,Wunderground v.1.15,2013-09-07 20:15:00,
2013-09-07 13:20:00,72.9,61.3,30.02,NE,55,2.0,4.0,67,0.00,,,0.00,814,Wunderground v.1.15,2013-09-07 20:20:00,
2013-09-07 13:25:00,72.7,61.5,30.02,North,5,3.0,7.0,68,0.00,,,0.00,747,Wunderground v.1.15,2013-09-07 20:25:00,
2013-09-07 13:30:00,72.8,61.6,30.02,SW,216,4.0,4.0,68,0.00,,,0.00,798,Wunderground v.1.15,2013-09-07 20:30:00,
2013-09-07 13:35:00,73.6,62.4,30.02,NW,325,5.0,10.0,68,0.00,,,0.00,239,Wunderground v.1.15,2013-09-07 20:35:00,
2013-09-07 13:40:00,73.2,61.2,30.01,WNW,299,7.0,7.0,66,0.00,,,0.00,744,Wunderground v.1.15,2013-09-07 20:40:00,
2013-09-07 13:45:00,73.1,61.1,30.01,NE,46,2.0,8.0,66,0.00,,,0.00,722,Wunderground v.1.15,2013-09-07 20:45:00,
2013-09-07 13:50:00,73.7,62.5,30.01,WSW,257,4.0,4.0,68,0.00,,,0.00,735,Wunderground v.1.15,2013-09-07 20:50:00,
2013-09-07 13:55:00,74.2,62.5,30.01,WNW,284,1.0,7.0,67,0.00,,,0.00,773,Wunderground v.1.15,2013-09-07 20:55:00,
2013-09-07 14:00:00,74.2,61.2,30.01,NW,322,4.0,4.0,64,0.00,,,0.00,139,Wunderground v.1.15,2013-09-07 21:00:00,
2013-09-07 14:05:00,73.9,61.0,30.01,NW,309,0.0,5.0,64,0.00,,,0.00,722,Wunderground v.1.15,2013-09-07 21:05:00,
2013-09-07 14:10:00,74.1,62.0,30.01,NW,324,5.0,7.0,66,0.00,,,0.00,770,Wunderground v.1.15,2013-09-07 21:10:00,
2013-09-07 14:15:00,73.9,61.4,30.01,NW,309,5.0,7.0,65,0.00,,,0.00,425,Wunderground v.1.15,2013-09-07 21:15:00,
2013-09-07 14:20:00,74.3,61.8,30.01,North,355,4.0,4.0,65,0.00,,,0.00,701,Wunderground v.1.15,2013-09-07 21:20:00,
2013-09-07 14:25:00,74.5,61.5,30.01,NE,45,4.0,11.0,64,0.00,,,0.00,715,Wunderground v.1.15,2013-09-07 21:25:00,
2013-09-07 14:30:00,74.9,61.5,30.00,North,351,3.0,5.0,63,0.00,,,0.00,680,Wunderground v.1.15,2013-09-07 21:30:00,
2013-09-07 14:35:00,75.7,61.3,30.00,NE,41,2.0,7.0,61,0.00,,,0.00,673,Wunderground v.1.15,2013-09-07 21:35:00,
2013-09-07 14:40:00,76.0,61.6,30.00,ENE,59,3.0,3.0,61,0.00,,,0.00,675,Wunderground v.1.15,2013-09-07 21:40:00,
2013-09-07 14:45:00,75.8,61.4,30.00,NW,319,3.0,7.0,61,0.00,,,0.00,668,Wunderground v.1.15,2013-09-07 21:45:00,
2013-09-07 14:50:00,75.8,61.8,30.00,NNW,329,3.0,4.0,62,0.00,,,0.00,675,Wunderground v.1.15,2013-09-07 21:50:00,
2013-09-07 14:55:00,75.6,61.7,30.00,NNE,14,4.0,8.0,62,0.00,,,0.00,227,Wunderground v.1.15,2013-09-07 21:55:00,
2013-09-07 15:00:00,75.9,61.9,30.00,NW,325,2.0,3.0,62,0.00,,,0.00,668,Wunderground v.1.15,2013-09-07 22:00:00,
2013-09-07 15:05:00,76.5,61.6,30.00,NNW,344,8.0,14.0,60,0.00,,,0.00,664,Wunderground v.1.15,2013-09-07 22:05:00,
2013-09-07 15:10:00,76.4,61.0,30.00,North,9,3.0,14.0,59,0.00,,,0.00,635,Wunderground v.1.15,2013-09-07 22:10:00,
2013-09-07 15:15:00,76.6,61.7,30.00,NW,312,7.0,10.0,60,0.00,,,0.00,615,Wunderground v.1.15,2013-09-07 22:15:00,
2013-09-07 15:20:00,76.2,61.3,30.00,NW,310,4.0,10.0,60,0.00,,,0.00,613,Wunderground v.1.15,2013-09-07 22:20:00,
2013-09-07 15:25:00,76.2,61.3,29.99,NNW,329,5.0,7.0,60,0.00,,,0.00,638,Wunderground v.1.15,2013-09-07 22:25:00,
2013-09-07 15:30:00,76.5,61.6,29.99,WNW,294,9.0,9.0,60,0.00,,,0.00,612,Wunderground v.1.15,2013-09-07 22:30:00,
2013-09-07 15:35:00,76.4,61.0,29.99,NW,315,5.0,10.0,59,0.00,,,0.00,589,Wunderground v.1.15,2013-09-07 22:35:00,
2013-09-07 15:40:00,76.4,62.0,30.00,NW,322,5.0,10.0,61,0.00,,,0.00,575,Wunderground v.1.15,2013-09-07 22:40:00,
2013-09-07 15:45:00,76.3,60.9,29.99,North,355,4.0,9.0,59,0.00,,,0.00,564,Wunderground v.1.15,2013-09-07 22:45:00,
2013-09-07 15:50:00,76.6,60.7,29.99,North,350,3.0,10.0,58,0.00,,,0.00,554,Wunderground v.1.15,2013-09-07 22:50:00,
2013-09-07 15:55:00,76.6,60.2,29.99,North,5,5.0,7.0,57,0.00,,,0.00,520,Wunderground v.1.15,2013-09-07 22:55:00,
2013-09-07 16:00:00,76.9,61.0,29.99,NW,326,3.0,8.0,58,0.00,,,0.00,534,Wunderground v.1.15,2013-09-07 23:00:00,
2013-09-07 16:05:00,77.2,60.3,29.99,NNE,32,2.0,9.0,56,0.00,,,0.00,520,Wunderground v.1.15,2013-09-07 23:05:00,
2013-09-07 16:10:00,77.8,61.3,29.99,NE,46,4.0,9.0,57,0.00,,,0.00,524,Wunderground v.1.15,2013-09-07 23:10:00,
2013-09-07 16:15:00,77.5,61.6,29.99,NW,316,2.0,7.0,58,0.00,,,0.00,504,Wunderground v.1.15,2013-09-07 23:15:00,
2013-09-07 16:20:00,77.3,61.4,29.99,NNW,342,5.0,8.0,58,0.00,,,0.00,503,Wunderground v.1.15,2013-09-07 23:20:00,
2013-09-07 16:25:00,77.3,61.4,29.99,NW,323,4.0,9.0,58,0.00,,,0.00,478,Wunderground v.1.15,2013-09-07 23:25:00,
2013-09-07 16:30:00,77.3,60.9,29.99,North,350,3.0,10.0,57,0.00,,,0.00,466,Wunderground v.1.15,2013-09-07 23:30:00,
2013-09-07 16:35:00,77.1,60.2,29.99,NW,326,3.0,9.0,56,0.00,,,0.00,459,Wunderground v.1.15,2013-09-07 23:35:00,
2013-09-07 16:40:00,77.1,61.2,29.99,NE,49,4.0,9.0,58,0.00,,,0.00,445,Wunderground v.1.15,2013-09-07 23:40:00,
2013-09-07 16:45:00,76.7,61.3,29.99,NNE,26,3.0,9.0,59,0.00,,,0.00,432,Wunderground v.1.15,2013-09-07 23:45:00,
2013-09-07 16:50:00,76.5,61.1,29.99,NNW,341,4.0,9.0,59,0.00,,,0.00,422,Wunderground v.1.15,2013-09-07 23:50:00,
2013-09-07 16:55:00,76.6,61.2,29.98,NNE,31,1.0,7.0,59,0.00,,,0.00,408,Wunderground v.1.15,2013-09-07 23:55:00,
2013-09-07 17:00:00,76.7,61.3,29.98,NNW,347,5.0,5.0,59,0.00,,,0.00,394,Wunderground v.1.15,2013-09-08 00:00:00,
2013-09-07 17:05:00,76.9,60.5,29.98,NNW,338,3.0,7.0,57,0.00,,,0.00,381,Wunderground v.1.15,2013-09-08 00:05:00,
2013-09-07 17:10:00,76.9,61.0,29.98,NNW,340,1.0,4.0,58,0.00,,,0.00,373,Wunderground v.1.15,2013-09-08 00:10:00,
2013-09-07 17:15:00,76.9,61.5,29.97,NE,36,2.0,8.0,59,0.00,,,0.00,357,Wunderground v.1.15,2013-09-08 00:15:00,
2013-09-07 17:20:00,76.8,61.4,29.98,NNE,20,1.0,3.0,59,0.00,,,0.00,346,Wunderground v.1.15,2013-09-08 00:20:00,
2013-09-07 17:25:00,76.6,61.2,29.98,North,11,4.0,8.0,59,0.00,,,0.00,332,Wunderground v.1.15,2013-09-08 00:25:00,
2013-09-07 17:30:00,76.6,61.7,29.97,NW,313,3.0,4.0,60,0.00,,,0.00,318,Wunderground v.1.15,2013-09-08 00:30:00,
2013-09-07 17:35:00,76.6,61.7,29.97,NW,317,7.0,8.0,60,0.00,,,0.00,302,Wunderground v.1.15,2013-09-08 00:35:00,
2013-09-07 17:40:00,76.5,61.1,29.98,ENE,59,1.0,3.0,59,0.00,,,0.00,292,Wunderground v.1.15,2013-09-08 00:40:00,
2013-09-07 17:45:00,76.4,61.5,29.97,NW,323,3.0,6.0,60,0.00,,,0.00,278,Wunderground v.1.15,2013-09-08 00:45:00,
2013-09-07 17:50:00,76.3,61.4,29.97,NW,323,6.0,6.0,60,0.00,,,0.00,264,Wunderground v.1.15,2013-09-08 00:50:00,
2013-09-07 17:55:00,76.2,61.3,29.97,NNW,329,8.0,8.0,60,0.00,,,0.00,251,Wunderground v.1.15,2013-09-08 00:55:00,
2013-09-07 18:00:00,76.0,61.1,29.97,NW,319,4.0,5.0,60,0.00,,,0.00,237,Wunderground v.1.15,2013-09-08 01:00:00,
2013-09-07 18:05:00,76.0,61.6,29.97,WNW,301,3.0,7.0,61,0.00,,,0.00,223,Wunderground v.1.15,2013-09-08 01:05:00,
2013-09-07 18:10:00,76.2,61.8,29.97,NW,308,3.0,7.0,61,0.00,,,0.00,207,Wunderground v.1.15,2013-09-08 01:10:00,
2013-09-07 18:15:00,76.1,61.7,29.97,NW,325,1.0,9.0,61,0.00,,,0.00,193,Wunderground v.1.15,2013-09-08 01:15:00,
2013-09-07 18:20:00,75.8,61.4,29.97,WNW,300,4.0,9.0,61,0.00,,,0.00,176,Wunderground v.1.15,2013-09-08 01:20:00,
2013-09-07 18:25:00,75.7,61.3,29.97,NNW,344,2.0,5.0,61,0.00,,,0.00,158,Wunderground v.1.15,2013-09-08 01:25:00,
2013-09-07 18:30:00,75.8,61.4,29.97,NW,320,5.0,6.0,61,0.00,,,0.00,141,Wunderground v.1.15,2013-09-08 01:30:00,
2013-09-07 18:35:00,75.4,61.5,29.97,NW,313,2.0,9.0,62,0.00,,,0.00,113,Wunderground v.1.15,2013-09-08 01:35:00,
2013-09-07 18:40:00,75.2,61.3,29.97,NW,325,2.0,9.0,62,0.00,,,0.00,109,Wunderground v.1.15,2013-09-08 01:40:00,
2013-09-07 18:45:00,75.1,61.6,29.97,North,355,5.0,8.0,63,0.00,,,0.00,93,Wunderground v.1.15,2013-09-08 01:45:00,
2013-09-07 18:50:00,75.0,61.5,29.97,NW,321,1.0,8.0,63,0.00,,,0.00,76,Wunderground v.1.15,2013-09-08 01:50:00,
2013-09-07 18:55:00,74.8,61.4,29.97,NNW,341,1.0,6.0,63,0.00,,,0.00,42,Wunderground v.1.15,2013-09-08 01:55:00,
2013-09-07 19:00:00,74.3,61.3,29.98,NW,323,4.0,6.0,64,0.00,,,0.00,23,Wunderground v.1.15,2013-09-08 02:00:00,
2013-09-07 19:05:00,73.8,61.3,29.97,WNW,294,2.0,7.0,65,0.00,,,0.00,21,Wunderground v.1.15,2013-09-08 02:05:00,
2013-09-07 19:10:00,73.5,61.4,29.98,NW,304,0.0,3.0,66,0.00,,,0.00,18,Wunderground v.1.15,2013-09-08 02:10:00,
2013-09-07 19:15:00,73.3,61.7,29.98,NNW,333,1.0,5.0,67,0.00,,,0.00,16,Wunderground v.1.15,2013-09-08 02:15:00,
2013-09-07 19:20:00,73.0,61.8,29.98,North,360,3.0,5.0,68,0.00,,,0.00,12,Wunderground v.1.15,2013-09-08 02:20:00,
2013-09-07 19:25:00,72.7,61.5,29.98,NNW,343,1.0,6.0,68,0.00,,,0.00,11,Wunderground v.1.15,2013-09-08 02:25:00,
2013-09-07 19:30:00,72.4,61.7,29.98,NNE,26,1.0,6.0,69,0.00,,,0.00,9,Wunderground v.1.15,2013-09-08 02:30:00,
2013-09-07 19:35:00,72.2,61.9,29.98,NNE,31,2.0,7.0,70,0.00,,,0.00,5,Wunderground v.1.15,2013-09-08 02:35:00,
2013-09-07 19:40:00,72.0,61.7,29.98,North,350,1.0,7.0,70,0.00,,,0.00,0,Wunderground v.1.15,2013-09-08 02:40:00,
2013-09-07 19:45:00,71.7,61.4,29.98,NNE,28,0.0,4.0,70,0.00,,,0.00,0,Wunderground v.1.15,2013-09-08 02:45:00,
2013-09-07 19:50:00,71.5,61.6,29.98,North,360,0.0,1.0,71,0.00,,,0.00,0,Wunderground v.1.15,2013-09-08 02:50:00,
2013-09-07 19:55:00,71.2,61.7,29.98,North,360,1.0,2.0,72,0.00,,,0.00,0,Wunderground v.1.15,2013-09-08 02:55:00,
2013-09-07 20:00:00,71.0,61.5,29.98,North,360,0.0,2.0,72,0.00,,,0.00,0,Wunderground v.1.15,2013-09-08 03:00:00,
2013-09-07 20:05:00,70.7,61.2,29.98,NNW,341,0.0,6.0,72,0.00,,,0.00,0,Wunderground v.1.15,2013-09-08 03:05:00,
2013-09-07 20:10:00,70.4,61.3,29.98,NNW,341,3.0,6.0,73,0.00,,,0.00,0,Wunderground v.1.15,2013-09-08 03:10:00,
2013-09-07 20:15:00,70.3,61.2,29.99,NNW,331,0.0,2.0,73,0.00,,,0.00,0,Wunderground v.1.15,2013-09-08 03:15:00,
2013-09-07 20:20:00,69.9,61.2,29.99,NNW,331,2.0,2.0,74,0.00,,,0.00,0,Wunderground v.1.15,2013-09-08 03:20:00,
2013-09-07 20:25:00,69.6,61.3,29.99,NNW,331,0.0,1.0,75,0.00,,,0.00,0,Wunderground v.1.15,2013-09-08 03:25:00,
2013-09-07 20:30:00,69.4,61.1,29.99,NNW,331,1.0,2.0,75,0.00,,,0.00,0,Wunderground v.1.15,2013-09-08 03:30:00,
2013-09-07 20:35:00,69.0,61.1,29.99,NNW,331,0.0,2.0,76,0.00,,,0.00,0,Wunderground v.1.15,2013-09-08 03:35:00,
2013-09-07 20:40:00,68.7,61.2,30.00,NNW,331,1.0,2.0,77,0.00,,,0.00,0,Wunderground v.1.15,2013-09-08 03:40:00,
2013-09-07 20:45:00,68.2,61.1,30.00,NW,325,1.0,3.0,78,0.00,,,0.00,0,Wunderground v.1.15,2013-09-08 03:45:00,
2013-09-07 20:50:00,67.8,61.0,30.00,NW,325,0.0,3.0,79,0.00,,,0.00,0,Wunderground v.1.15,2013-09-08 03:50:00,
2013-09-07 20:55:00,67.5,60.8,30.00,NW,325,0.0,1.0,79,0.00,,,0.00,0,Wunderground v.1.15,2013-09-08 03:55:00,
2013-09-07 21:00:00,67.2,60.8,30.00,NW,325,0.0,1.0,80,0.00,,,0.00,0,Wunderground v.1.15,2013-09-08 04:00:00,
2013-09-07 21:01:00,67.2,61.2,29.99,NW,325,0.0,1.0,81,0.00,,,0.00,0,Wunderground v.1.15,2013-09-08 04:01:00,
2013-09-07 21:06:00,66.8,60.8,30.00,NW,325,0.0,1.0,81,0.00,,,0.00,0,Wunderground v.1.15,2013-09-08 04:06:00,
2013-09-07 21:11:00,66.5,60.8,30.00,NW,325,0.0,0.0,82,0.00,,,0.00,0,Wunderground v.1.15,2013-09-08 04:11:00,
2013-09-07 21:16:00,66.3,60.6,29.99,NW,325,0.0,1.0,82,0.00,,,0.00,0,Wunderground v.1.15,2013-09-08 04:16:00,
2013-09-07 21:21:00,66.2,60.5,29.99,NW,325,0.0,0.0,82,0.00,,,0.00,0,Wunderground v.1.15,2013-09-08 04:21:00,
2013-09-07 21:26:00,66.1,60.4,29.99,NW,325,0.0,0.0,82,0.00,,,0.00,0,Wunderground v.1.15,2013-09-08 04:26:00,
2013-09-07 21:31:00,65.7,60.4,29.99,NW,325,0.0,1.0,83,0.00,,,0.00,0,Wunderground v.1.15,2013-09-08 04:31:00,
2013-09-07 21:36:00,65.2,60.2,29.99,NW,325,0.0,1.0,84,0.00,,,0.00,0,Wunderground v.1.15,2013-09-08 04:36:00,
2013-09-07 21:41:00,64.9,59.9,29.99,NW,325,0.0,0.0,84,0.00,,,0.00,0,Wunderground v.1.15,2013-09-08 04:41:00,
2013-09-07 21:46:00,64.7,60.1,30.00,NW,325,0.0,1.0,85,0.00,,,0.00,0,Wunderground v.1.15,2013-09-08 04:46:00,
2013-09-07 21:51:00,64.3,60.0,30.00,NW,325,0.0,1.0,86,0.00,,,0.00,0,Wunderground v.1.15,2013-09-08 04:51:00,
2013-09-07 21:56:00,63.9,59.6,30.00,NW,325,0.0,1.0,86,0.00,,,0.00,0,Wunderground v.1.15,2013-09-08 04:56:00,
2013-09-07 22:01:00,63.6,59.7,30.00,NW,325,0.0,0.0,87,0.00,,,0.00,0,Wunderground v.1.15,2013-09-08 05:01:00,
2013-09-07 22:06:00,63.5,59.6,30.00,NW,325,0.0,0.0,87,0.00,,,0.00,0,Wunderground v.1.15,2013-09-08 05:06:00,
2013-09-07 22:11:00,63.4,59.5,30.00,NW,325,0.0,0.0,87,0.00,,,0.00,0,Wunderground v.1.15,2013-09-08 05:11:00,
2013-09-07 22:16:00,63.3,59.4,30.00,NW,325,0.0,0.0,87,0.00,,,0.00,0,Wunderground v.1.15,2013-09-08 05:16:00,
2013-09-07 22:21:00,63.1,59.5,30.00,NW,325,0.0,0.0,88,0.00,,,0.00,0,Wunderground v.1.15,2013-09-08 05:21:00,
2013-09-07 22:26:00,62.8,59.5,30.00,NW,325,0.0,0.0,89,0.00,,,0.00,0,Wunderground v.1.15,2013-09-08 05:26:00,
2013-09-07 22:31:00,62.5,59.2,30.00,NW,325,0.0,0.0,89,0.00,,,0.00,0,Wunderground v.1.15,2013-09-08 05:31:00,
2013-09-07 22:36:00,62.3,59.0,30.00,NNW,344,0.0,0.0,89,0.00,,,0.00,0,Wunderground v.1.15,2013-09-08 05:36:00,
2013-09-07 22:41:00,62.2,59.2,30.00,NNW,344,0.0,0.0,90,0.00,,,0.00,0,Wunderground v.1.15,2013-09-08 05:41:00,
2013-09-07 22:46:00,62.2,59.2,30.01,NNW,344,0.0,0.0,90,0.00,,,0.00,0,Wunderground v.1.15,2013-09-08 05:46:00,
2013-09-07 22:51:00,62.1,59.1,30.01,NNW,344,0.0,0.0,90,0.00,,,0.00,0,Wunderground v.1.15,2013-09-08 05:51:00,
2013-09-07 22:56:00,61.9,58.9,30.01,NNW,344,0.0,0.0,90,0.00,,,0.00,0,Wunderground v.1.15,2013-09-08 05:56:00,
2013-09-07 23:01:00,61.7,58.7,30.01,NNW,344,0.0,0.0,90,0.00,,,0.00,0,Wunderground v.1.15,2013-09-08 06:01:00,
2013-09-07 23:06:00,61.6,58.6,30.01,NNW,344,0.0,0.0,90,0.00,,,0.00,0,Wunderground v.1.15,2013-09-08 06:06:00,
2013-09-07 23:11:00,61.4,58.4,30.01,NNW,344,0.0,0.0,90,0.00,,,0.00,0,Wunderground v.1.15,2013-09-08 06:11:00,
2013-09-07 23:16:00,61.3,58.7,30.01,NNW,344,0.0,0.0,91,0.00,,,0.00,0,Wunderground v.1.15,2013-09-08 06:16:00,
2013-09-07 23:21:00,61.1,58.5,30.01,NNW,344,0.0,0.0,91,0.00,,,0.00,0,Wunderground v.1.15,2013-09-08 06:21:00,
2013-09-07 23:26:00,61.0,58.4,30.01,NNW,344,0.0,0.0,91,0.00,,,0.00,0,Wunderground v.1.15,2013-09-08 06:26:00,
2013-09-07 23:31:00,60.9,58.3,30.01,NNW,344,0.0,0.0,91,0.00,,,0.00,0,Wunderground v.1.15,2013-09-08 06:31:00,
2013-09-07 23:36:00,60.7,58.1,30.01,NNW,344,0.0,0.0,91,0.00,,,0.00,0,Wunderground v.1.15,2013-09-08 06:36:00,
2013-09-07 23:41:00,60.6,58.0,30.01,NNW,344,0.0,0.0,91,0.00,,,0.00,0,Wunderground v.1.15,2013-09-08 06:41:00,
2013-09-07 23:46:00,60.6,58.3,30.01,North,5,0.0,0.0,92,0.00,,,0.00,0,Wunderground v.1.15,2013-09-08 06:46:00,
2013-09-07 23:51:00,60.5,58.2,30.02,North,5,0.0,0.0,92,0.00,,,0.00,0,Wunderground v.1.15,2013-09-08 06:51:00,
2013-09-07 23:56:00,60.4,58.1,30.02,North,5,0.0,0.0,92,0.00,,,0.00,0,Wunderground v.1.15,2013-09-08 06:56:00,